Live-Position
3D-Globus wird geladen...
Über Starlink 2515
Group: 3 satellites
Beschreibung wird geladen...
Nächste Überflüge
Passes for default location (London). Set your location on the main map for personalized predictions.
Höhenverlauf
Loading altitude history...
No altitude history available
Zweizeiliger Elementsatz
1 48323U 21036AZ 26105.93886691 .00100788 00000-0 32706-2 0 9990
2 48323 53.1633 287.9680 0001250 178.9851 181.1153 15.31159479273748
Epoch: 15. Apr. 2026 •
Age: 5 hours
Aktueller Status
Höhe 477.6 km
Geschwindigkeit 7.63 km/s
Subsatellitenpunkt 49.16°N,
147.52°E
Startdatum 29. Apr. 2021
Alter 4.9 years
Typ internet
Startgruppe
Falcon 9 •
Launch 24 •
45 satellites
Starlink 2567
48276
Starlink 2569 48277
Starlink 2543 48278
Starlink 2565 48280
Starlink 2558 48282
Starlink 2516 48283
Starlink 2564 48284
Starlink 2547 48286
Starlink 2566 48287
Starlink 2545 48289
Starlink 2555 48291
Starlink 2542 48292
Starlink 2550 48293
Starlink 2533 48294
Starlink 2535 48295
Starlink 2559 48298
Starlink 2557 48299
Starlink 2538 48300
Starlink 2537 48301
Starlink 2530 48303
...and 24 more
Technische Details
Klassifizierung Payload
Masse 260.00 kg
Trockenmasse 248.00 kg
Gesamtmasse 260.00 kg
Länge 0.20 m
Durchmesser 2.80 m
Spannweite 9.00 m
Form Box + pan
Hersteller SPXS
Bus-Typ Starlink
Phasenstatus In Orbit
Besitzer/Staat SPXS/US
Most Searched
Loading...